K42C Weather Reports


Display with metric or nautical units.
time (UTC)temp
F
wind
direction
speed
MPH
gust
MPH
rain 1hr
in
rain 24hr
in
rain mn
in
humidity
%
barometer
mb
20260504214644 72 222 7.0 9.0 0.00 0.00 0.00 41 960.4
20260504214007 72 201 9.0 12.0 0.00 0.00 0.00 41 960.5
20260504213326 72 183 11.0 11.0 0.00 0.00 0.00 41 960.5
20260504212648 72 186 9.0 5.0 0.00 0.00 0.00 41 960.5
20260504212008 71 173 12.0 13.0 0.00 0.00 0.00 41 960.5
20260504211330 72 184 12.0 19.0 0.00 0.00 0.00 41 960.7
20260504210649 72 203 9.0 7.0 0.00 0.00 0.00 40 960.8
20260504210012 72 221 12.0 9.0 0.00 0.00 0.00 40 960.8
20260504205331 72 184 10.0 9.0 0.00 0.00 0.00 39 960.9
20260504204653 72 257 10.0 9.0 0.00 0.00 0.00 39 961.0
20260504203335 73 204 12.0 15.0 0.00 0.00 0.00 36 960.9
20260504202654 73 211 14.0 8.0 0.00 0.00 0.00 36 960.9
20260504202017 72 224 5.0 14.0 0.00 0.00 0.00 36 961.0
20260504201336 72 193 12.0 7.0 0.00 0.00 0.00 35 961.2
20260504200659 72 181 9.0 16.0 0.00 0.00 0.00 34 961.2
20260504200018 72 184 11.0 19.0 0.00 0.00 0.00 35 961.3
20260504195341 72 243 10.0 11.0 0.00 0.00 0.00 35 961.3
20260504194700 72 212 8.0 8.0 0.00 0.00 0.00 33 961.3
20260504194022 73 181 10.0 9.0 0.00 0.00 0.00 32 961.2
20260504193342 73 186 12.0 23.0 0.00 0.00 0.00 32 961.4
20260504192704 73 242 8.0 11.0 0.00 0.00 0.00 31 961.2
20260504192023 73 226 9.0 9.0 0.00 0.00 0.00 32 961.4
20260504191346 73 250 10.0 10.0 0.00 0.00 0.00 32 961.4
20260504190705 73 242 10.0 7.0 0.00 0.00 0.00 31 961.3
20260504190028 73 219 13.0 14.0 0.00 0.00 0.00 30 961.4
20260504185347 73 187 11.0 10.0 0.00 0.00 0.00 30 961.4
20260504184710 73 211 13.0 7.0 0.00 0.00 0.00 29 961.5
20260504184029 73 208 9.0 2.0 0.00 0.00 0.00 31 961.5
20260504183351 73 183 10.0 8.0 0.00 0.00 0.00 31 961.6
20260504182711 73 205 10.0 10.0 0.00 0.00 0.00 31 961.5
20260504182033 73 246 10.0 10.0 0.00 0.00 0.00 31 961.5
20260504181352 73 207 9.0 4.0 0.00 0.00 0.00 31 961.6
20260504180715 73 266 5.0 8.0 0.00 0.00 0.00 32 961.7
20260504175357 72 250 8.0 0.0 0.00 0.00 0.00 32 961.8
20260504174716 72 215 14.0 17.0 0.00 0.00 0.00 30 961.8
20260504174039 73 277 14.0 18.0 0.00 0.00 0.00 30 961.9
20260504173358 72 232 7.0 4.0 0.00 0.00 0.00 33 961.9
20260504172721 72 205 12.0 12.0 0.00 0.00 0.00 34 961.9
20260504172040 72 238 8.0 16.0 0.00 0.00 0.00 33 962.0
20260504171403 72 205 10.0 5.0 0.00 0.00 0.00 35 962.2
20260504170722 71 215 6.0 19.0 0.00 0.00 0.00 36 962.4
20260504150740 66 226 8.0 8.0 0.00 0.00 0.00 51 963.3
20260504140751 60 210 5.0 5.0 0.00 0.00 0.00 70 964.4
20260504140110 59 179 4.0 3.0 0.00 0.00 0.00 72 964.4
20260504130759 55 179 6.0 7.0 0.00 0.00 0.00 82 965.2
20260504081522 47 184 0.0 0.0 0.00 0.00 0.00 98 966.7
20260504080845 47 184 0.0 0.0 0.00 0.00 0.00 97 966.7
20260504080204 47 184 0.0 0.0 0.00 0.00 0.00 97 966.8
20260504070214 49 134 0.0 0.0 0.00 0.00 0.00 94 967.0
20260504060221 50 179 6.0 6.0 0.00 0.00 0.00 91 967.4
20260504050231 52 188 7.0 3.0 0.00 0.00 0.00 87 967.9
20260504045551 52 184 4.0 3.0 0.00 0.00 0.00 87 967.9
20260504044913 52 203 2.0 5.0 0.00 0.00 0.00 86 968.0
20260504044232 52 165 6.0 8.0 0.00 0.00 0.00 86 967.9
20260504043555 52 197 5.0 7.0 0.00 0.00 0.00 86 968.0
20260504042914 52 225 6.0 8.0 0.00 0.00 0.00 86 968.0
20260504042237 52 169 5.0 9.0 0.00 0.00 0.00 86 967.9
20260504041556 52 190 4.0 7.0 0.00 0.00 0.00 85 968.0
20260504040919 52 176 6.0 7.0 0.00 0.00 0.00 85 968.1
20260504040238 52 160 6.0 8.0 0.00 0.00 0.00 84 968.1
20260504035601 52 222 7.0 8.0 0.00 0.00 0.00 84 968.3
20260504034920 52 176 5.0 6.0 0.00 0.00 0.00 83 968.2
20260504034243 52 194 6.0 4.0 0.00 0.00 0.00 83 968.3
20260504033602 52 177 5.0 6.0 0.00 0.00 0.00 82 968.3
20260504032924 52 217 6.0 5.0 0.00 0.00 0.00 82 968.4
20260504032244 52 226 3.0 7.0 0.00 0.00 0.00 81 968.4
20260504031606 53 190 7.0 7.0 0.00 0.00 0.00 80 968.5
20260504030925 53 184 1.0 0.0 0.00 0.00 0.00 80 968.6
20260504030248 53 155 6.0 3.0 0.00 0.00 0.00 79 968.6
20260504025607 53 191 4.0 6.0 0.00 0.00 0.00 79 968.6
20260504024930 53 111 6.0 2.0 0.00 0.00 0.00 78 968.6
20260504024249 53 210 5.0 5.0 0.00 0.00 0.00 77 968.6
20260504023612 53 190 6.0 7.0 0.00 0.00 0.00 77 968.6
20260504022931 53 181 7.0 8.0 0.00 0.00 0.00 77 968.8
20260504022253 53 187 6.0 3.0 0.00 0.00 0.00 77 968.7
20260504021613 53 183 6.0 7.0 0.00 0.00 0.00 76 968.8
20260504020935 53 191 8.0 4.0 0.00 0.00 0.00 76 968.8
20260504020254 53 172 7.0 8.0 0.00 0.00 0.00 76 968.7
20260504015617 53 200 5.0 4.0 0.00 0.00 0.00 75 968.8
20260504014936 53 120 7.0 5.0 0.00 0.00 0.00 75 968.7
20260504014259 54 167 2.0 4.0 0.00 0.00 0.00 75 968.8
20260504013618 54 194 5.0 7.0 0.00 0.00 0.00 74 968.8
20260504012941 54 222 5.0 0.0 0.00 0.00 0.00 74 968.8
20260504012300 54 169 3.0 6.0 0.00 0.00 0.00 73 968.8
20260504011623 54 203 4.0 6.0 0.00 0.00 0.00 72 968.7
20260504010942 55 152 3.0 5.0 0.00 0.00 0.00 72 968.6
20260504010304 55 208 6.0 3.0 0.00 0.00 0.00 71 968.5
20260504005623 55 212 7.0 5.0 0.00 0.00 0.00 70 968.6
20260504004946 55 215 6.0 6.0 0.00 0.00 0.00 69 968.6
20260504004305 56 194 6.0 0.0 0.00 0.00 0.00 68 968.7
20260504003628 56 212 4.0 7.0 0.00 0.00 0.00 67 968.5
20260504002947 57 150 7.0 5.0 0.00 0.00 0.00 65 968.4
20260504002310 57 191 6.0 8.0 0.00 0.00 0.00 64 968.4
20260504001629 57 233 6.0 6.0 0.00 0.00 0.00 64 968.4
20260504000952 57 153 9.0 3.0 0.00 0.00 0.00 64 968.4
20260504000311 57 176 8.0 6.0 0.00 0.00 0.00 64 968.3
20260503235633 57 160 8.0 8.0 0.00 0.00 0.00 64 968.3
20260503234953 57 181 6.0 8.0 0.00 0.00 0.00 63 968.2
20260503234315 58 181 9.0 3.0 0.00 0.00 0.00 63 968.2
20260503233634 58 222 2.0 3.0 0.00 0.00 0.00 63 968.2
20260503232957 58 179 9.0 6.0 0.00 0.00 0.00 62 968.2
20260503232316 58 174 7.0 8.0 0.00 0.00 0.00 62 968.3
20260503231639 58 170 9.0 16.0 0.00 0.00 0.00 61 968.1
20260503230958 58 229 9.0 14.0 0.00 0.00 0.00 62 968.5
20260503230321 57 129 9.0 15.0 0.00 0.00 0.00 62 968.6
20260503225640 57 179 7.0 6.0 0.00 0.00 0.00 62 968.6
20260503225003 57 194 7.0 8.0 0.00 0.00 0.00 62 968.7
20260503224322 57 186 10.0 6.0 0.00 0.00 0.00 63 968.9
20260503223644 57 212 12.0 8.0 0.00 0.00 0.00 63 969.3
20260503223004 57 248 8.0 6.0 0.00 0.00 0.00 63 969.1
20260503222326 56 235 13.0 10.0 0.00 0.00 0.00 63 969.4
20260503221645 56 166 8.0 13.0 0.00 0.00 0.00 64 969.3
20260503221008 56 191 13.0 9.0 0.00 0.00 0.00 64 969.4
20260503220327 56 166 12.0 17.0 0.00 0.00 0.00 64 969.6
20260503215650 56 162 9.0 19.0 0.00 0.00 0.00 64 969.6